Torna al catalogo

ORS 5 SENSORSAT

AttivoMilitareVLEO
NORAD 42921·PAYLOAD·🇺🇸 United States

Lanciato Aug 26, 2017 da Cape Canaveral Space Force Station

Loading…

Prossimi Passaggi (prossime 24 ore)

TLE

AggiornatoSource: Space-Track

Epoca: Sep 13, 2026, 16:25 UTC

1 42921U 17050A   26256.68432741  .00002297  00000-0  11076-3 0  9995
2 42921   0.0476 206.2784 0010390 302.7851 210.9977 15.01148444494346

Traccia ORS 5 SENSORSAT in tempo reale con AllMySat

Download on the App Store